• In United Kingdom
  • List of Countries
  • For 7 days
  • Water Temperature
  • Satellite Maps
  • Weather Map
  • Weather Widgets
  • user-avatar
    Login

    Hourly Weather Eisenstadt

    Today, 29 May, Monday

    Time Temperature Precipitation Wind Pressure Humidity
    00:00 +13°C° 0 mm 2 mps 725 mmHg 80%
    01:00 +13°C° 0 mm 2 mps 725 mmHg 81%
    02:00 +12°C° 0 mm 2 mps 725 mmHg 82%
    03:00 +12°C° 0 mm 2 mps 724 mmHg 83%
    04:00 +12°C° 0 mm 2 mps 724 mmHg 84%
    05:00 +14°C° 0 mm 2 mps 724 mmHg 80%
    06:00 +16°C° 0 mm 2 mps 724 mmHg 76%
    07:00 +18°C° 0 mm 2 mps 725 mmHg 71%
    08:00 +20°C° 0 mm 3 mps 724 mmHg 66%
    09:00 +21°C° 0 mm 3 mps 724 mmHg 62%
    10:00 +24°C° 0 mm 3 mps 724 mmHg 57%
    11:00 +25°C° 0 mm 3 mps 724 mmHg 56%
    12:00 +25°C° 0 mm 3 mps 724 mmHg 56%
    13:00 +26°C° 0 mm 3 mps 724 mmHg 55%
    14:00 +26°C° 0.1 mm 3 mps 723 mmHg 57%
    15:00 +26°C° 0.1 mm 3 mps 723 mmHg 59%
    16:00 +25°C° 0.1 mm 3 mps 722 mmHg 61%
    17:00 +24°C° 0 mm 3 mps 722 mmHg 68%
    18:00 +21°C° 0 mm 3 mps 722 mmHg 74%
    19:00 +20°C° 0 mm 2 mps 721 mmHg 81%
    20:00 +18°C° 0 mm 2 mps 721 mmHg 84%
    21:00 +17°C° 0 mm 2 mps 721 mmHg 86%
    22:00 +15°C° 0 mm 2 mps 721 mmHg 89%
    23:00 +15°C° 0 mm 2 mps 721 mmHg 89%

    Tomorrow, 30 May, Tuesday

    Time Temperature Precipitation Wind Pressure Humidity
    00:00 +15°C° 0 mm 1 mps 721 mmHg 89%
    01:00 +14°C° 0 mm 1 mps 721 mmHg 90%
    02:00 +14°C° 0 mm 1 mps 721 mmHg 90%
    03:00 +14°C° 0 mm 1 mps 721 mmHg 90%
    04:00 +14°C° 0 mm 1 mps 721 mmHg 90%
    05:00 +16°C° 0 mm 1 mps 721 mmHg 85%
    06:00 +19°C° 0 mm 1 mps 721 mmHg 79%
    07:00 +21°C° 0 mm 1 mps 722 mmHg 73%
    08:00 +23°C° 0 mm 1 mps 722 mmHg 67%
    09:00 +25°C° 0 mm 1 mps 722 mmHg 61%
    10:00 +26°C° 0 mm 1 mps 722 mmHg 55%
    11:00 +27°C° 0.2 mm 1 mps 722 mmHg 55%
    12:00 +27°C° 0.2 mm 1 mps 722 mmHg 55%
    13:00 +28°C° 0.2 mm 1 mps 722 mmHg 54%
    14:00 +28°C° 0.3 mm 1 mps 722 mmHg 55%
    15:00 +28°C° 0.3 mm 1 mps 722 mmHg 56%
    16:00 +28°C° 0.3 mm 1 mps 722 mmHg 57%
    17:00 +26°C° 0.3 mm 1 mps 722 mmHg 64%
    18:00 +24°C° 0.3 mm 1 mps 722 mmHg 72%
    19:00 +21°C° 0.3 mm 0 mps 722 mmHg 79%
    20:00 +22°C° 0 mm 1 mps 722 mmHg 81%
    21:00 +21°C° 0 mm 1 mps 722 mmHg 83%
    22:00 +20°C° 0 mm 1 mps 722 mmHg 86%
    23:00 +20°C° 0.8 mm 1 mps 722 mmHg 86%

    Day after tomorrow, 31 May, Wednesday

    Time Temperature Precipitation Wind Pressure Humidity
    00:00 +19°C° 0.8 mm 2 mps 722 mmHg 87%
    01:00 +19°C° 0.8 mm 2 mps 722 mmHg 87%
    02:00 +19°C° 0.7 mm 2 mps 722 mmHg 88%
    03:00 +18°C° 0.7 mm 2 mps 722 mmHg 89%
    04:00 +18°C° 0.7 mm 2 mps 722 mmHg 89%
    05:00 +19°C° 0.1 mm 2 mps 723 mmHg 87%
    06:00 +20°C° 0.1 mm 3 mps 723 mmHg 85%
    07:00 +21°C° 0.1 mm 3 mps 723 mmHg 83%
    08:00 +22°C° 0.3 mm 3 mps 724 mmHg 78%
    09:00 +24°C° 0.3 mm 3 mps 724 mmHg 73%
    10:00 +25°C° 0.3 mm 3 mps 724 mmHg 68%
    11:00 +25°C° 0.5 mm 3 mps 724 mmHg 66%
    12:00 +26°C° 0.5 mm 3 mps 724 mmHg 63%
    13:00 +26°C° 0.5 mm 3 mps 724 mmHg 61%
    14:00 +26°C° 0.7 mm 2 mps 724 mmHg 64%
    15:00 +26°C° 0.7 mm 2 mps 723 mmHg 66%
    16:00 +25°C° 0.7 mm 2 mps 723 mmHg 69%
    17:00 +24°C° 0.7 mm 2 mps 723 mmHg 74%
    18:00 +23°C° 0.7 mm 1 mps 723 mmHg 80%
    19:00 +22°C° 0.7 mm 1 mps 723 mmHg 86%
    20:00 +21°C° 0.9 mm 1 mps 723 mmHg 87%
    21:00 +20°C° 0.9 mm 1 mps 723 mmHg 88%
    22:00 +19°C° 0.9 mm 1 mps 724 mmHg 90%
    23:00 +17°C° 0.3 mm 2 mps 724 mmHg 91%

    1 June, Thursday

    Time Temperature Precipitation Wind Pressure Humidity
    00:00 +17°C° 0.3 mm 2 mps 724 mmHg 91%
    01:00 +17°C° 0.3 mm 2 mps 724 mmHg 92%
    02:00 +16°C° 0.1 mm 2 mps 724 mmHg 93%
    03:00 +16°C° 0.1 mm 2 mps 724 mmHg 93%
    04:00 +15°C° 0.1 mm 2 mps 724 mmHg 93%
    05:00 +16°C° 0.3 mm 2 mps 724 mmHg 89%
    06:00 +16°C° 0.3 mm 3 mps 724 mmHg 85%
    07:00 +17°C° 0.3 mm 3 mps 724 mmHg 81%
    08:00 +17°C° 0.2 mm 3 mps 725 mmHg 78%
    09:00 +18°C° 0.2 mm 2 mps 725 mmHg 76%
    10:00 +18°C° 0.2 mm 2 mps 725 mmHg 73%
    11:00 +18°C° 0 mm 2 mps 725 mmHg 72%
    12:00 +18°C° 0 mm 2 mps 725 mmHg 71%
    13:00 +19°C° 0 mm 2 mps 725 mmHg 70%
    14:00 +20°C° 0 mm 1 mps 725 mmHg 68%
    15:00 +21°C° 0 mm 1 mps 724 mmHg 66%
    16:00 +22°C° 0 mm 1 mps 724 mmHg 64%
    17:00 +21°C° 0 mm 1 mps 724 mmHg 70%
    18:00 +20°C° 0 mm 1 mps 724 mmHg 76%
    19:00 +19°C° 0 mm 1 mps 724 mmHg 81%
    20:00 +18°C° 0 mm 1 mps 724 mmHg 83%
    21:00 +15°C° 0 mm 1 mps 724 mmHg 85%
    22:00 +14°C° 0 mm 1 mps 724 mmHg 87%
    23:00 +14°C° 0 mm 1 mps 724 mmHg 87%

    2 June, Friday

    Time Temperature Precipitation Wind Pressure Humidity
    00:00 +14°C° 0 mm 1 mps 724 mmHg 87%
    01:00 +14°C° 0 mm 1 mps 724 mmHg 87%
    02:00 +13°C° 0 mm 1 mps 724 mmHg 85%
    03:00 +13°C° 0 mm 1 mps 724 mmHg 84%
    04:00 +13°C° 0 mm 1 mps 724 mmHg 83%
    05:00 +14°C° 0 mm 1 mps 724 mmHg 81%
    06:00 +15°C° 0 mm 1 mps 725 mmHg 79%
    07:00 +16°C° 0 mm 1 mps 725 mmHg 77%
    08:00 +19°C° 0 mm 1 mps 725 mmHg 72%
    09:00 +20°C° 0 mm 1 mps 725 mmHg 67%
    10:00 +21°C° 0 mm 1 mps 725 mmHg 62%
    11:00 +22°C° 0.1 mm 1 mps 725 mmHg 61%
    12:00 +23°C° 0.1 mm 1 mps 725 mmHg 60%
    13:00 +24°C° 0.1 mm 1 mps 725 mmHg 58%
    14:00 +24°C° 0.4 mm 1 mps 724 mmHg 59%
    15:00 +24°C° 0.4 mm 1 mps 724 mmHg 60%
    16:00 +24°C° 0.4 mm 1 mps 724 mmHg 61%
    17:00 +23°C° 0.2 mm 1 mps 724 mmHg 67%
    18:00 +22°C° 0.2 mm 1 mps 724 mmHg 73%
    19:00 +20°C° 0.2 mm 1 mps 724 mmHg 79%
    20:00 +19°C° 0 mm 1 mps 724 mmHg 82%
    21:00 +16°C° 0 mm 1 mps 724 mmHg 84%
    22:00 +15°C° 0 mm 1 mps 724 mmHg 87%
    23:00 +14°C° 0 mm 1 mps 724 mmHg 87%

    3 June, Saturday

    Time Temperature Precipitation Wind Pressure Humidity
    00:00 +14°C° 0 mm 1 mps 723 mmHg 87%
    01:00 +13°C° 0 mm 1 mps 723 mmHg 88%
    02:00 +12°C° 0 mm 0 mps 723 mmHg 88%
    03:00 +11°C° 0 mm 0 mps 723 mmHg 89%
    04:00 +11°C° 0 mm 0 mps 723 mmHg 89%
    05:00 +14°C° 0 mm 0 mps 723 mmHg 83%
    06:00 +18°C° 0 mm 1 mps 724 mmHg 77%
    07:00 +21°C° 0 mm 1 mps 724 mmHg 71%
    08:00 +22°C° 0 mm 1 mps 724 mmHg 67%
    09:00 +23°C° 0 mm 1 mps 724 mmHg 64%
    10:00 +24°C° 0 mm 2 mps 725 mmHg 60%
    11:00 +25°C° 0.1 mm 2 mps 724 mmHg 59%
    12:00 +26°C° 0.1 mm 2 mps 724 mmHg 58%
    13:00 +26°C° 0.1 mm 3 mps 724 mmHg 57%
    14:00 +26°C° 0.2 mm 2 mps 724 mmHg 57%
    15:00 +26°C° 0.2 mm 2 mps 724 mmHg 58%
    16:00 +26°C° 0.2 mm 2 mps 723 mmHg 58%
    17:00 +25°C° 0 mm 2 mps 723 mmHg 64%
    18:00 +24°C° 0 mm 2 mps 723 mmHg 70%
    19:00 +21°C° 0 mm 2 mps 723 mmHg 76%
    20:00 +20°C° 0 mm 2 mps 723 mmHg 78%
    21:00 +19°C° 0 mm 2 mps 723 mmHg 80%
    22:00 +17°C° 0 mm 2 mps 723 mmHg 82%
    23:00 +17°C° 0 mm 2 mps 723 mmHg 83%
    Show more